Showing default

TYVAK-0172, 46267

Orbit data source: Space-Track

TYVAK-0172, 46267 is a payload satellite owned by Echostar AU (US) in SSO that was launched on Sun, 30 Aug 2020 UTC via an FALCON 9 launch vehicle from the Air Force Eastern Test Range (AFETR). Payload-class satellites include a variety of spacecraft equipped with specific instruments for various scientific and technological missions. These include communications satellites like Starlink; space stations such as the ISS; scientific satellites like the Hubble; Earth observation satellites from companies like Planet Labs, Umbra, and HawkEye 360; GPS; miniature CubeSats for education and research; and military/defense satellites.

Loading next visibility...
Identifier
46267, 2020-059C
Orbit
SSO
Country
Flag of USUS
Related business
Manufacturer
Tyvak NSS
Mission
Operational Commercial Technology
Bus & Motor
CUBESAT 6U?, Unknown motor
Mass
11 kg wet, 11 kg dry
Launch date (UTC)
2020-08-30 (5 years ago)
Launch vehicle
FALCON 9
Launch site
Air Force Eastern Test Range (AFETR)
Object type
Payload
Rocket body
Debris
Shape & HBR
Box + 2 Pan, Unknown HBR
Radar Cross Section
0.077 m², Medium (>0.1 m² and < 1m²)

Expand to show TLE details & history
Last TLE update: 8 hours ago

TLE from 8 hours ago
0 TYVAK-0172
1 46267U 20059C   25309.16230618  .00051987  00000-0  10697-2 0  9992
2 46267  97.7352 176.8386 0002971  55.3810 304.7718 15.45785456283788
Epoch: 2025-11-05T03:53Z
TLE epoch observation values (Epoch: 2025-11-05T03:53:43.253Z)
Latitude
-0.00005°
Longitude
73.76945°
Altitude
431.033 km
Speed
7.654 km/s
True Right ascension
11h 47m 21s
True Declination
0° 00' 00"
Sunlit
Object was in daylight at epoch
Visualization orbit readout
Latitude
Unknown
Longitude
Unknown
Altitude
Unknown
Speed
Unknown
Apparent Right ascension
Unknown
Apparent Declination
Unknown
Sunlit
N/A
Visualization observer readout
Local Sidereal Time
07:50:05
Azimuth
Unknown
Elevation
Unknown
Doppler factor
Unknown
Orbital elements
Apogee altitude
428.039 km
Perigee altitude
423.996 km
Semi-major axis
6,804.154 km
Eccentricity
0.0003
Inclination
97.7352°
RAAN
176.8386°
Arg. of periapsis
55.381°
True anomaly
304.74383°
Mean anomaly
304.7718°
Eccentric anomaly
304.75781°
Mean motion
3.86707 °/min
Orbital period
93.09 mins
BSTAR
0.0010697
Loading maneuver chart data...
Computing Atmospheric mass density...
Loading historical data...
Loading historical data...
Loading historical data...
Loading historical data...
Loading historical data...
Loading historical data...
Loading historical data...
Other satellites on launch #59 in the year 2020 (2020-08-30 UTC)

Documentation

Showing up to 5 results
|